Location: Pinon Hills
(34.4429°N, 117.6403°W)
Time: 20:31:01
(UTC-07:00)

Amateur Radio Satellites - All Passes

Search period start: 24 October 2014 20:01
Search period end: 25 October 2014 20:01
Location: Pinon Hills, 34.4429°N, 117.6403°W

Satellite Date Start Highest point End Downlink Frequencies (MHz)
Time Altitude Azimuth
SO-67 24 Oct 20:08:37 20:10:41 15° 266° (W) 20:12:47 435.3500 MHz FM
RS-15 24 Oct 20:45:11 20:53:49 27° 104° (ESE) 21:02:18 29.354 - 29.394 USB, Beacon 29.352 USB
HO-68 24 Oct 20:49:41 20:56:47 71° 72° (ENE) 21:03:55 435.675 MHz FM
STRAND 1 24 Oct 21:00:05 21:03:24 18° 295° (WNW) 21:06:43 ?
Oscar 11 24 Oct 21:03:56 21:07:19 23° 70° (ENE) 21:10:42 145.825 FM, Beacon 2401.500 USB
SO-50 24 Oct 21:17:55 21:21:51 24° 52° (NE) 21:25:47 436.795 FM
KITSAT 1 24 Oct 21:21:06 21:29:02 56° 58° (ENE) 21:36:53 435.175 FM
ISS 24 Oct 21:26:40 21:27:23 11° 234° (SW) 21:28:05 145.800 FM
ZACube-1 24 Oct 21:52:17 21:56:27 35° 72° (ENE) 22:00:34 437.345 MHz
UKube-1 24 Oct 21:57:18 22:01:37 71° 258° (WSW) 22:05:59 145.840 MHz, 145.915 MHz
FUNcube-1 24 Oct 22:36:32 22:41:07 72° 259° (WSW) 22:45:40 145.950 - 145.970 MHz USB
Oscar 11 24 Oct 22:39:46 22:43:21 25° 264° (W) 22:46:56 145.825 FM, Beacon 2401.500 USB
HO-68 24 Oct 22:40:27 22:44:58 18° 267° (W) 22:49:32 435.675 MHz FM
UOSAT-12 24 Oct 22:42:23 22:45:15 16° 48° (NE) 22:48:05 437.025 FM, 437.400 FM
RS-15 24 Oct 22:54:10 23:05:09 69° 302° (WNW) 23:16:03 29.354 - 29.394 USB, Beacon 29.352 USB
SO-50 24 Oct 22:58:01 23:02:28 37° 247° (WSW) 23:06:56 436.795 FM
KITSAT 1 24 Oct 23:17:21 23:23:54 28° 255° (WSW) 23:30:27 435.175 FM
MaSat-1 24 Oct 23:22:18 23:26:28 54° 110° (ESE) 23:30:17 437.345 MHz
ZACube-1 24 Oct 23:29:40 23:32:52 19° 266° (W) 23:36:02 437.345 MHz
UOSAT-12 25 Oct 00:21:09 00:25:45 57° 244° (WSW) 00:30:16 437.025 FM, 437.400 FM
JAS-1B 25 Oct 00:51:09 00:53:34 12° 93° (E) 00:56:06 435.800 - 435.900 CW/SSB
MaSat-1 25 Oct 01:01:10 01:02:15 11° 302° (WNW) 01:03:19 437.345 MHz
RS-15 25 Oct 01:12:38 01:19:57 20° 328° (NNW) 01:27:19 29.354 - 29.394 USB, Beacon 29.352 USB
Oscar 19 25 Oct 01:38:37 01:42:56 27° 96° (E) 01:47:14 437.125 CW, 437.150 USB
AO-27 25 Oct 01:57:50 02:01:01 16° 93° (E) 02:04:10 436.795 MHz FM
AO-Echo 25 Oct 02:17:29 02:22:22 36° 98° (E) 02:27:12 ?
Oscar 16 25 Oct 02:23:47 02:28:56 83° 103° (ESE) 02:34:03 437.025 USB, Beacon 2401.1428
Sapphire 25 Oct 02:23:51 02:25:46 12° 102° (ESE) 02:27:41 437.095 MHz 1200 baud AX-25 AFSK
JAS-1B 25 Oct 02:37:32 02:44:27 84° 104° (ESE) 02:52:47 435.800 - 435.900 CW/SSB
Uribyol 2 25 Oct 02:43:51 02:48:56 51° 100° (E) 02:53:57 436.500 FM
PCSat 25 Oct 02:43:56 02:48:01 22° 106° (ESE) 02:52:07 145.825 MHz
ITAMSAT 1 25 Oct 02:49:55 02:55:03 56° 101° (E) 03:00:08 435.822 SSB
Gurwin Techsat 1B 25 Oct 03:11:11 03:16:18 46° 99° (E) 03:21:22 435.225 FM
Oscar 19 25 Oct 03:17:49 03:22:11 29° 291° (WNW) 03:26:32 437.125 CW, 437.150 USB
TMSAT-1 25 Oct 03:22:18 03:27:21 43° 99° (E) 03:32:21 436.925 FM
AO-27 25 Oct 03:35:42 03:40:45 50° 287° (WNW) 03:45:45 436.795 MHz FM
RS-15 25 Oct 03:36:44 03:39:06 11° 6° (N) 03:41:29 29.354 - 29.394 USB, Beacon 29.352 USB
AO-Echo 25 Oct 03:56:39 04:00:52 25° 292° (WNW) 04:05:05 ?
Sapphire 25 Oct 04:03:06 04:08:29 72° 297° (WNW) 04:13:54 437.095 MHz 1200 baud AX-25 AFSK
Uosat F 25 Oct 04:04:38 04:06:56 13° 93° (E) 04:09:14 435.120 FM
AO-7 25 Oct 04:16:50 04:24:10 33° 98° (E) 04:31:27 29.400 - 29.500 MHz
Uribyol 2 25 Oct 04:24:43 04:27:56 17° 295° (WNW) 04:31:08 436.500 FM
PCSat 25 Oct 04:26:01 04:31:06 41° 301° (WNW) 04:36:13 145.825 MHz
JAS-1B 25 Oct 04:30:41 04:34:31 16° 297° (WNW) 04:38:41 435.800 - 435.900 CW/SSB
ITAMSAT 1 25 Oct 04:31:00 04:34:01 16° 296° (WNW) 04:37:02 435.822 SSB
OPAL 25 Oct 04:47:03 04:51:57 45° 70° (ENE) 04:56:48 ?
Gurwin Techsat 1B 25 Oct 04:52:12 04:55:51 19° 294° (WNW) 04:59:31 435.225 FM
TMSAT-1 25 Oct 05:03:06 05:06:54 20° 294° (WNW) 05:10:42 436.925 FM
Uosat F 25 Oct 05:41:04 05:46:02 58° 287° (WNW) 05:50:57 435.120 FM
JAS-2 25 Oct 05:44:30 05:51:57 45° 98° (E) 05:59:14 435.800 - 435.900 CW/SSB, 435.910 FM
RS-15 25 Oct 05:48:06 05:57:15 28° 41° (NE) 06:06:39 29.354 - 29.394 USB, Beacon 29.352 USB
AO-7 25 Oct 06:09:10 06:17:00 48° 294° (WNW) 06:24:52 29.400 - 29.500 MHz
PANSAT 25 Oct 06:17:23 06:19:28 14° 160° (SSE) 06:21:33 not established
OPAL 25 Oct 06:27:32 06:30:58 18° 264° (W) 06:34:23 ?
STRAND 1 25 Oct 06:32:03 06:36:57 48° 72° (ENE) 06:41:53 ?
Hamsat 25 Oct 06:37:20 06:41:33 84° 102° (ESE) 06:45:46 145.90 MHz
Saudisat 1A 25 Oct 07:25:08 07:29:30 88° 301° (WNW) 07:33:55 436.775 MHz
JAS-2 25 Oct 07:29:46 07:36:39 36° 293° (WNW) 07:43:30 435.800 - 435.900 CW/SSB, 435.910 FM
SO-67 25 Oct 07:33:50 07:37:07 41° 99° (E) 07:40:23 435.3500 MHz FM
PANSAT 25 Oct 07:55:46 07:59:07 29° 172° (S) 08:02:27 not established
RS-15 25 Oct 07:59:40 08:10:57 84° 244° (WSW) 08:22:45 29.354 - 29.394 USB, Beacon 29.352 USB
STRAND 1 25 Oct 08:13:12 08:16:21 16° 266° (W) 08:19:31 ?
HO-68 25 Oct 08:23:52 08:27:39 15° 92° (E) 08:31:25 435.675 MHz FM
Oscar 10/S400 25 Oct 09:00:34 00:01:09 45° 223° (SW) 09:53:43 145.825 - 145.975 CW/USB, Beacon 145.810 USB
MaSat-1 25 Oct 09:12:08 09:14:22 27° 63° (ENE) 09:16:28 437.345 MHz
PANSAT 25 Oct 09:35:28 09:38:53 31° 185° (S) 09:42:19 not established
UKube-1 25 Oct 09:49:33 09:53:10 25° 97° (E) 09:56:46 145.840 MHz, 145.915 MHz
HO-68 25 Oct 10:08:46 10:15:59 81° 287° (WNW) 10:23:09 435.675 MHz FM
RS-15 25 Oct 10:15:26 10:21:44 17° 260° (W) 10:28:12 29.354 - 29.394 USB, Beacon 29.352 USB
FUNcube-1 25 Oct 10:29:57 10:33:32 27° 96° (E) 10:37:03 145.950 - 145.970 MHz USB
Oscar 11 25 Oct 10:29:59 10:34:18 75° 102° (ESE) 10:38:35 145.825 FM, Beacon 2401.500 USB
ISS 25 Oct 10:53:27 10:54:10 11° 126° (SE) 10:54:53 145.800 FM
PANSAT 25 Oct 11:15:55 11:18:35 18° 197° (SSW) 11:21:15 not established
ZACube-1 25 Oct 11:21:07 11:25:20 67° 284° (WNW) 11:29:26 437.345 MHz
UKube-1 25 Oct 11:25:45 11:29:13 23° 291° (WNW) 11:32:39 145.840 MHz, 145.915 MHz
SO-50 25 Oct 11:31:04 11:33:31 15° 108° (ESE) 11:36:01 436.795 FM
KITSAT 1 25 Oct 11:44:51 11:52:46 63° 112° (ESE) 12:00:42 435.175 FM
HO-68 25 Oct 11:59:29 12:02:33 13° 304° (WNW) 12:05:37 435.675 MHz FM
FUNcube-1 25 Oct 12:06:39 12:09:43 20° 291° (WNW) 12:12:44 145.950 - 145.970 MHz USB
ISS 25 Oct 12:27:11 12:30:27 56° 319° (NW) 12:33:44 145.800 FM
Oscar 19 25 Oct 12:52:10 12:56:31 28° 69° (ENE) 13:00:52 437.125 CW, 437.150 USB
Sapphire 25 Oct 12:54:49 12:59:58 42° 59° (ENE) 13:05:05 437.095 MHz 1200 baud AX-25 AFSK
SO-50 25 Oct 13:09:18 13:13:36 46° 303° (WNW) 13:18:02 436.795 FM
AO-27 25 Oct 13:12:44 13:16:13 18° 66° (ENE) 13:19:42 436.795 MHz FM
PCSat 25 Oct 13:17:06 13:22:32 74° 63° (ENE) 13:27:55 145.825 MHz
JAS-1B 25 Oct 13:20:56 13:26:42 47° 72° (ENE) 13:32:07 435.800 - 435.900 CW/SSB
AO-Echo 25 Oct 13:27:15 13:31:28 30° 70° (ENE) 13:35:49 ?
Oscar 16 25 Oct 13:37:05 13:42:15 84° 76° (ENE) 13:47:26 437.025 USB, Beacon 2401.1428
KITSAT 1 25 Oct 13:41:56 13:48:38 28° 311° (NW) 13:55:23 435.175 FM
Uribyol 2 25 Oct 13:58:07 14:03:11 54° 73° (ENE) 14:08:17 436.500 FM
ITAMSAT 1 25 Oct 14:04:19 14:09:25 59° 74° (ENE) 14:14:33 435.822 SSB
UOSAT-12 25 Oct 14:28:28 14:33:04 82° 299° (WNW) 14:37:47 437.025 FM, 437.400 FM
Gurwin Techsat 1B 25 Oct 14:28:43 14:33:50 51° 73° (ENE) 14:38:58 435.225 FM
Oscar 19 25 Oct 14:31:20 14:35:44 28° 263° (W) 14:40:10 437.125 CW, 437.150 USB
Sapphire 25 Oct 14:38:59 14:43:03 22° 254° (WSW) 14:47:05 437.095 MHz 1200 baud AX-25 AFSK
TMSAT-1 25 Oct 14:39:30 14:44:33 47° 72° (ENE) 14:49:38 436.925 FM
AO-27 25 Oct 14:50:19 14:55:18 47° 260° (W) 15:00:20 436.795 MHz FM
PCSat 25 Oct 15:03:28 15:05:13 12° 258° (WSW) 15:06:58 145.825 MHz
AO-Echo 25 Oct 15:06:16 15:10:11 24° 265° (W) 15:14:14 ?
AO-7 25 Oct 15:12:17 15:19:26 34° 62° (ENE) 15:26:36 29.400 - 29.500 MHz
JAS-1B 25 Oct 15:13:37 15:17:35 18° 265° (W) 15:21:23 435.800 - 435.900 CW/SSB
Uosat F 25 Oct 15:15:00 15:17:24 14° 64° (ENE) 15:19:48 435.120 FM
Uribyol 2 25 Oct 15:40:04 15:42:56 15° 267° (W) 15:45:49 436.500 FM
ITAMSAT 1 25 Oct 15:46:42 15:49:13 14° 268° (W) 15:51:46 435.822 SSB
Saudisat 1A 25 Oct 15:55:32 15:59:18 26° 53° (NE) 16:03:02 436.775 MHz
JAS-2 25 Oct 15:57:50 15:59:16 11° 56° (NE) 16:00:45 435.800 - 435.900 CW/SSB, 435.910 FM
Gurwin Techsat 1B 25 Oct 16:10:49 16:14:02 16° 267° (W) 16:17:16 435.225 FM
TMSAT-1 25 Oct 16:21:12 16:24:40 18° 266° (W) 16:28:09 436.925 FM
Uosat F 25 Oct 16:50:39 16:55:36 61° 259° (WSW) 17:00:36 435.120 FM
OPAL 25 Oct 17:02:03 17:04:52 15° 95° (E) 17:07:41 ?
AO-7 25 Oct 17:04:01 17:11:54 48° 258° (WSW) 17:19:50 29.400 - 29.500 MHz
Hamsat 25 Oct 17:27:12 17:31:04 36° 73° (ENE) 17:34:54 145.90 MHz
Saudisat 1A 25 Oct 17:35:05 17:38:45 26° 248° (WSW) 17:42:25 436.775 MHz
JAS-2 25 Oct 17:37:11 17:42:59 81° 75° (ENE) 17:49:37 435.800 - 435.900 CW/SSB, 435.910 FM
OPAL 25 Oct 18:39:12 18:43:58 49° 289° (WNW) 18:48:42 ?
STRAND 1 25 Oct 18:47:02 18:50:58 22° 95° (E) 18:54:52 ?
ISS 25 Oct 18:58:49 19:01:50 31° 37° (NE) 19:04:50 145.800 FM
Hamsat 25 Oct 19:04:45 19:07:05 15° 267° (W) 19:09:26 145.90 MHz
JAS-2 25 Oct 19:27:07 19:29:00 11° 274° (W) 19:30:57 435.800 - 435.900 CW/SSB, 435.910 FM
SO-67 25 Oct 19:35:29 19:38:45 42° 261° (W) 19:42:03 435.3500 MHz FM
KITSAT 1 25 Oct 19:43:21 19:48:33 18° 42° (NE) 19:53:43 435.175 FM
